Deering, AK

8:39 PM AKDT on September 25, 2016 (GMT -0800)
Deering (New)

Weather History for PADE - February, 2014

Change the Weather History Date:

Sunday, February 9, 2014

  Actual Average (PAOT) Record (PAOT)
Temperature  
Mean Temperature 10 °F -1 °F  
Max Temperature 23 °F - 32 °F (2011)
Min Temperature -2 °F -8 °F -44 °F (1936)
Degree Days  
Heating Degree Days 54 66  
Month to date heating degree days 603  
Since 1 July heating degree days 9002  
Cooling Degree Days 0    
Month to date cooling degree days  
Year to date cooling degree days  
Moisture  
Dew Point -7 °F    
Average Humidity 46    
Maximum Humidity 66    
Minimum Humidity 32    
Precipitation  
Precipitation 0.00 in 0.02 in 0.28 in (1992)
Month to date precipitation 0.19  
Year to date precipitation 0.81  
Snow  
Snow 0.00 in 0.30 in 3.00 in (2011)
Month to date snowfall 2.8  
Since 1 July snowfall 40.8  
Snow Depth -    
Sea Level Pressure  
Sea Level Pressure 30.62 in    
Wind  
Wind Speed 6 mph (SW)    
Max Wind Speed 22 mph    
Max Gust Speed -    
Visibility 10 miles    
Events      
T = Trace of Precipitation, MM = Missing Value Source: NWS Daily Summary

Daily Weather History Graph

Daily Weather History Graph

Search for Another Location

Airport or City:

Trip Planner

Search our weather history database for the weather conditions in past years. The results will help you decide how hot, cold, wet, or windy it might be!

Date:

Astronomy

Feb. 09, 2014 Rise Set
Actual Time 10:17 AM AKST 5:54 PM AKST
Civil Twilight 9:19 AM AKST 6:52 PM AKST
Nautical Twilight 8:17 AM AKST 7:54 PM AKST
Astronomical Twilight 7:18 AM AKST 8:53 PM AKST
Moon 12:46 PM AKST (2/9) 7:29 AM AKST (2/9)
Length of Visible Light 9h 33m
Length of Day
7h 36m
Waxing Gibbous, 78% of the Moon is Illuminated
Feb 9
Waxing Gibbous
Feb 14
Full
Feb 22
Last Quarter
Feb 28
New
Mar 8
First Quarter

Hourly Weather History & Observations

Time (AKST) Temp. Windchill Dew Point Humidity Pressure Visibility Wind Dir Wind Speed Gust Speed Precip Events Conditions
12:53 AM -2.9 °F - -13.0 °F 62% 30.67 in 10.0 mi Calm Calm - N/A   Partly Cloudy
1:53 AM 3.9 °F - -11.9 °F 48% 30.67 in 10.0 mi Calm Calm - N/A   Overcast
2:53 AM 14.0 °F 8.2 °F -9.9 °F 34% 30.67 in 10.0 mi SSW 3.5 mph - N/A   Overcast
3:53 AM 12.9 °F 6.9 °F -9.9 °F 35% 30.67 in 10.0 mi SSW 3.5 mph - N/A   Scattered Clouds
4:53 AM 14.0 °F 5.1 °F -9.9 °F 34% 30.67 in 10.0 mi SSW 5.8 mph - N/A   Clear
5:53 AM -0.9 °F -8.9 °F -9.9 °F 66% 30.66 in 10.0 mi SSW 3.5 mph - N/A   Clear
6:53 AM -0.9 °F -12.7 °F -14.1 °F 54% 30.67 in 10.0 mi SW 5.8 mph - N/A   Clear
7:53 AM 6.1 °F -6.8 °F -14.1 °F 39% 30.66 in 10.0 mi SSW 8.1 mph - N/A   Clear
8:53 AM 10.0 °F 0.4 °F -15.0 °F 32% 30.67 in 10.0 mi SSW 5.8 mph - N/A   Clear
9:53 AM -2.0 °F -13.9 °F -15.0 °F 54% 30.68 in 10.0 mi SW 5.8 mph - N/A   Partly Cloudy
10:36 AM 6.8 °F -2.0 °F -14.8 °F 37% 30.67 in 10.0 mi SW 4.6 mph - N/A   Mostly Cloudy
10:53 AM 7.0 °F -3.3 °F -17.0 °F 33% 30.67 in 10.0 mi SW 5.8 mph - N/A   Mostly Cloudy
11:05 AM 5.0 °F -5.6 °F -16.6 °F 36% 30.67 in 10.0 mi SW 5.8 mph - N/A   Scattered Clouds
11:53 AM 10.9 °F 2.9 °F -11.9 °F 35% 30.66 in 10.0 mi SSW 4.6 mph - N/A   Clear
12:53 PM 7.0 °F -4.5 °F -9.0 °F 48% 30.65 in 10.0 mi SSW 6.9 mph - N/A   Clear
1:53 PM 15.1 °F 3.3 °F -5.1 °F 41% 30.63 in 10.0 mi SW 9.2 mph - N/A   Clear
2:53 PM 18.0 °F 6.1 °F -0.9 °F 44% 30.62 in 10.0 mi SW 10.4 mph - N/A   Clear
3:53 PM 18.0 °F 4.8 °F -0.0 °F 45% 30.60 in 10.0 mi WSW 12.7 mph - N/A   Clear
4:53 PM 12.9 °F -3.9 °F 1.9 °F 62% 30.57 in 10.0 mi WSW 17.3 mph - N/A   Clear
5:45 PM 12.2 °F -6.7 °F 1.4 °F 62% 30.54 in 2.5 mi West 21.9 mph - N/A   Haze
5:53 PM 12.9 °F -5.3 °F 1.9 °F 62% 30.54 in 6.0 mi West 20.7 mph - N/A   Haze
6:53 PM 12.9 °F -4.4 °F 1.0 °F 59% 30.54 in 10.0 mi West 18.4 mph - N/A   Clear
7:53 PM 18.0 °F 7.7 °F -0.0 °F 45% 30.55 in 10.0 mi SW 8.1 mph - N/A   Clear
8:53 PM 12.9 °F -1.6 °F 1.0 °F 59% 30.53 in 10.0 mi West 12.7 mph - N/A   Clear
9:53 PM 10.9 °F -3.4 °F -0.9 °F 59% 30.54 in 10.0 mi West 11.5 mph - N/A   Clear
10:53 PM 23.0 °F 18.4 °F -2.9 °F 32% 30.56 in 10.0 mi WSW 3.5 mph - N/A   Clear
11:53 PM 19.9 °F 13.4 °F -2.0 °F 38% 30.57 in 10.0 mi SSW 4.6 mph - N/A   Clear